Weather History for Buckhannon, WV

Change the Weather History Date:

Thursday, October 17, 2013

  Actual Average (KEKN) Record (KEKN)
Temperature  
Mean Temperature 57 °F 51 °F  
Max Temperature 66 °F 64 °F 84 °F (1928)
Min Temperature 48 °F 38 °F 22 °F (1970)
Degree Days  
Heating Degree Days 8 14  
Month to date heating degree days 199  
Since 1 July heating degree days 359  
Cooling Degree Days 0 0  
Month to date cooling degree days 0  
Year to date cooling degree days 471  
Growing Degree Days 7 (Base 50)    
Moisture  
Dew Point 58 °F    
Average Humidity 99    
Maximum Humidity 100    
Minimum Humidity 88    
Precipitation  
Precipitation 0.10 in 0.08 in 1.17 in (1957)
Month to date precipitation 1.55  
Year to date precipitation 37.99  
Snow  
Snow 0.00 in - - ()
Month to date snowfall  
Since 1 September snowfall  
Snow Depth -    
Sea Level Pressure  
Sea Level Pressure 29.91 in    
Wind  
Wind Speed 5 mph (SW)    
Max Wind Speed 21 mph    
Max Gust Speed 38 mph    
Visibility 6 miles    
Events Fog , Rain    
T = Trace of Precipitation, MM = Missing Value Source: NWS Daily Summary

Daily Weather History Graph

Daily Weather History Graph

Search for Another Location

Airport:

Trip Planner

Search our weather history database for the weather conditions in past years. The results will help you decide how hot, cold, wet, or windy it might be!

Date:

Astronomy

Oct. 17, 2013 Rise Set
Actual Time 7:32 AM EDT 6:39 PM EDT
Civil Twilight 7:05 AM EDT 7:06 PM EDT
Nautical Twilight 6:34 AM EDT 7:37 PM EDT
Astronomical Twilight 6:03 AM EDT 8:08 PM EDT
Moon 5:52 PM EDT 6:03 AM EDT
Length of Visible Light 12h 00m
Length of Day
11h 06m
Waxing Gibbous, 98% of the Moon is Illuminated
Oct 17
Waxing Gibbous
Oct 18
Full
Oct 26
Last Quarter
Nov 3
New
Nov 10
First Quarter

Hourly Weather History & Observations

Time (EDT) Temp. Dew Point Humidity Pressure Visibility Wind Dir Wind Speed Gust Speed Precip Events Conditions
12:15 AM 60.8 °F 60.8 °F 100% 29.98 in 3.0 mi SSW 6.9 mph - N/A   Overcast
12:35 AM 60.8 °F 60.8 °F 100% 29.97 in 5.0 mi SSW 5.8 mph - N/A   Overcast
12:55 AM 60.8 °F 60.8 °F 100% 29.97 in 4.0 mi SSW 5.8 mph - N/A   Light Drizzle
1:15 AM 60.8 °F 60.8 °F 100% 29.96 in 3.0 mi SSW 6.9 mph - N/A   Overcast
1:35 AM 60.8 °F 60.8 °F 100% 29.97 in 8.0 mi SSW 6.9 mph - N/A   Overcast
1:55 AM 60.8 °F 60.8 °F 100% 29.97 in 4.0 mi SSW 5.8 mph - N/A   Overcast
2:15 AM 60.8 °F 60.8 °F 100% 29.96 in 1.5 mi SSW 5.8 mph - N/A   Overcast
2:35 AM 60.8 °F 60.8 °F 100% 29.95 in 1.5 mi SW 4.6 mph - 0.01 in   Drizzle
2:55 AM 60.8 °F 60.8 °F 100% 29.95 in 2.5 mi Calm Calm - 0.02 in   Overcast
3:15 AM 60.8 °F 60.8 °F 100% 29.95 in 4.0 mi SW 8.1 mph - N/A   Overcast
3:35 AM 60.8 °F 60.8 °F 100% 29.94 in 2.0 mi SSW 4.6 mph - N/A   Overcast
3:55 AM 60.8 °F 60.8 °F 100% 29.94 in 1.5 mi SW 4.6 mph - N/A   Light Drizzle
4:15 AM 60.8 °F 60.8 °F 100% 29.93 in 5.0 mi SSW 3.5 mph - N/A   Overcast
4:35 AM 60.8 °F 60.8 °F 100% 29.93 in 3.0 mi Calm Calm - N/A   Overcast
4:55 AM 60.8 °F 60.8 °F 100% 29.93 in 5.0 mi Calm Calm - N/A   Overcast
5:15 AM 60.8 °F 60.8 °F 100% 29.93 in 6.0 mi SSW 4.6 mph - N/A   Overcast
5:35 AM 60.8 °F 60.8 °F 100% 29.93 in 5.0 mi Calm Calm - N/A   Overcast
5:55 AM 60.8 °F 60.8 °F 100% 29.93 in 3.0 mi Calm Calm - N/A Rain Light Rain
6:15 AM 60.8 °F 60.8 °F 100% 29.93 in 1.5 mi SSW 3.5 mph - N/A   Overcast
6:35 AM 60.8 °F 60.8 °F 100% 29.92 in 0.5 mi South 3.5 mph - N/A Fog Fog
6:55 AM 60.8 °F 60.8 °F 100% 29.92 in 0.2 mi Calm Calm - N/A Fog Fog
7:15 AM 60.8 °F 60.8 °F 100% 29.92 in 0.2 mi South 4.6 mph - N/A Fog Fog
7:35 AM 60.8 °F 60.8 °F 100% 29.92 in 0.5 mi South 3.5 mph - N/A Fog Fog
7:55 AM 60.8 °F 60.8 °F 100% 29.92 in 0.5 mi Calm Calm - N/A Fog Fog
8:15 AM 60.8 °F 60.8 °F 100% 29.92 in 0.5 mi Calm Calm - N/A Fog Fog
8:35 AM 60.8 °F 60.8 °F 100% 29.92 in 0.8 mi Calm Calm - N/A   Overcast
8:55 AM 60.8 °F 60.8 °F 100% 29.92 in 3.0 mi Calm Calm - N/A   Overcast
9:35 AM 60.8 °F - N/A% 29.92 in 5.0 mi Calm Calm - N/A   Haze
9:55 AM 60.8 °F - N/A% 29.91 in 9.0 mi Calm Calm - N/A   Overcast
10:15 AM 62.6 °F 62.6 °F 100% 29.91 in 9.0 mi Calm Calm - N/A   Overcast
10:35 AM 62.6 °F 62.6 °F 100% 29.91 in 10.0 mi Calm Calm - N/A   Overcast
10:55 AM 62.6 °F 62.6 °F 100% 29.90 in 7.0 mi Calm Calm - N/A   Mostly Cloudy
11:15 AM 62.6 °F 62.6 °F 100% 29.89 in 10.0 mi Calm Calm - N/A   Scattered Clouds
11:35 AM 62.6 °F 62.6 °F 100% 29.88 in 10.0 mi Calm Calm - N/A   Scattered Clouds
11:55 AM 64.4 °F 62.6 °F 94% 29.88 in 10.0 mi Calm Calm - N/A   Mostly Cloudy
12:15 PM 64.4 °F 64.4 °F 100% 29.87 in 10.0 mi Calm Calm - N/A   Mostly Cloudy
12:35 PM 64.4 °F 62.6 °F 94% 29.85 in 10.0 mi Calm Calm - N/A   Overcast
12:55 PM 64.4 °F 62.6 °F 94% 29.85 in 10.0 mi Calm Calm - N/A   Overcast
1:15 PM 64.4 °F 62.6 °F 94% 29.83 in 8.0 mi Calm Calm - N/A   Overcast
1:35 PM 64.4 °F 64.4 °F 100% 29.82 in 6.0 mi Calm Calm - N/A   Drizzle
1:55 PM 64.4 °F 64.4 °F 100% 29.81 in 1.8 mi Calm Calm - 0.01 in   Light Drizzle
2:15 PM 64.4 °F 64.4 °F 100% 29.80 in 2.5 mi Calm Calm - N/A Rain Light Rain
2:35 PM 64.4 °F 64.4 °F 100% 29.79 in 5.0 mi South 5.8 mph - N/A   Mostly Cloudy
2:55 PM 64.4 °F 64.4 °F 100% 29.78 in 10.0 mi South 5.8 mph - N/A   Mostly Cloudy
3:15 PM 64.4 °F 64.4 °F 100% 29.77 in 10.0 mi South 9.2 mph - N/A   Overcast
3:35 PM 64.4 °F 62.6 °F 94% 29.77 in 10.0 mi SSW 10.4 mph - N/A   Overcast
3:55 PM 66.2 °F 62.6 °F 88% 29.76 in 10.0 mi SSW 10.4 mph 17.3 mph N/A   Overcast
4:15 PM 66.2 °F 62.6 °F 88% 29.76 in 10.0 mi SSW 12.7 mph - N/A   Mostly Cloudy
4:35 PM 64.4 °F 62.6 °F 94% 29.74 in 8.0 mi SSW 9.2 mph - N/A   Mostly Cloudy
4:55 PM 60.8 °F 60.8 °F 100% 29.76 in 1.5 mi NW 17.3 mph 38.0 mph 0.05 in Rain Heavy Rain
5:15 PM 53.6 °F 53.6 °F 100% 29.84 in 10.0 mi WNW 20.7 mph 33.4 mph N/A   Overcast
5:35 PM 51.8 °F 51.8 °F 100% 29.84 in 9.0 mi West 8.1 mph 17.3 mph N/A   Overcast
5:55 PM 51.8 °F 51.8 °F 100% 29.86 in 5.0 mi WSW 8.1 mph - N/A   Overcast
6:15 PM 51.8 °F 51.8 °F 100% 29.88 in 10.0 mi West 8.1 mph - N/A   Overcast
6:35 PM 51.8 °F 51.8 °F 100% 29.89 in 10.0 mi WSW 13.8 mph 19.6 mph N/A   Overcast
6:55 PM 51.8 °F 51.8 °F 100% 29.91 in 7.0 mi West 15.0 mph 18.4 mph N/A   Light Drizzle
7:15 PM 50.0 °F 50.0 °F 100% 29.92 in 2.5 mi West 13.8 mph 21.9 mph N/A   Overcast
7:35 PM 50.0 °F 50.0 °F 100% 29.93 in 2.5 mi West 10.4 mph - N/A   Light Drizzle
7:55 PM 48.2 °F 48.2 °F 100% 29.95 in 2.5 mi WNW 13.8 mph 19.6 mph 0.01 in   Overcast
8:15 PM 48.2 °F 48.2 °F 100% 29.96 in 2.0 mi West 9.2 mph 18.4 mph N/A   Light Drizzle
8:35 PM 48.2 °F 48.2 °F 100% 29.97 in 2.0 mi West 11.5 mph 16.1 mph 0.01 in   Overcast
8:55 PM 48.2 °F 48.2 °F 100% 29.97 in 7.0 mi West 9.2 mph - 0.01 in   Overcast
9:15 PM 48.2 °F 48.2 °F 100% 29.98 in 10.0 mi West 8.1 mph - N/A   Overcast
9:35 PM 48.2 °F 48.2 °F 100% 29.98 in 10.0 mi WSW 6.9 mph - N/A   Overcast
9:55 PM 48.2 °F 48.2 °F 100% 29.98 in 10.0 mi WSW 6.9 mph - N/A   Mostly Cloudy
10:15 PM 48.2 °F 48.2 °F 100% 29.99 in 10.0 mi SW 6.9 mph - N/A   Overcast
10:35 PM 48.2 °F 48.2 °F 100% 29.98 in 10.0 mi SW 8.1 mph - N/A   Overcast
10:55 PM 48.2 °F 48.2 °F 100% 29.98 in 10.0 mi SW 8.1 mph - N/A   Overcast
11:15 PM 48.2 °F 48.2 °F 100% 29.98 in 10.0 mi SW 10.4 mph - N/A   Overcast
11:35 PM 48.2 °F 48.2 °F 100% 29.98 in 10.0 mi SSW 8.1 mph - N/A   Overcast
11:55 PM 48.2 °F 48.2 °F 100% 29.98 in 10.0 mi SW 10.4 mph - N/A   Overcast